Temp
85 100 103 98 82 84 80 85 94 88 89 98 100 96 95 99 94 86 108 109 110 104 94 88 80 80 80 80 80 80 80 79 80 80 80 79 79 79 79 79 80 80 81 81 81 81 81 81 80
93 98 98 92 78 76 80 92 86 92 95 96 97 97 95 93 102 101 105 106 109 103 94 93 80 80 80 80 80 79 80 79 79 80 80 79 79 79 79 79 80 80 81 81 81 81 81 81 80
93 96 87 84 79 75 80 88 89 94 94 94 93 98 96 93 98 99 105 106 106 103 97 93 80 79 80 80 79 79 79 79 79 80 80 79 79 79 79 79 80 80 81 81 81 81 80 80 80
95 94 88 75 75 82 84 89 91 90 93 95 95 89 98 101 98 102 104 105 106 106 101 85 79 79 79 79 79 79 79 79 79 79 79 79 79 79 78 79 79 80 81 81 81 80 80 80 79
95 89 77 74 75 84 86 89 91 88 91 92 95 90 92 99 103 103 102 104 105 107 104 91 79 79 79 79 79 79 79 79 79 79 79 79 79 78 78 79 79 80 80 81 80 80 79 79 79
85 88 73 71 75 82 85 90 89 89 93 94 91 92 94 103 102 102 102 104 108 107 103 93 81 79 79 79 79 78 78 78 78 79 79 79 78 78 78 78 79 79 80 80 80 79 78 78 78
80 80 74 76 77 80 83 90 85 88 89 91 97 87 96 99 102 104 102 102 106 108 104 94 90 84 79 79 78 78 78 78 78 78 78 78 78 78 78 78 78 79 79 79 79 78 78 78 77
86 82 74 78 76 78 88 86 87 85 85 98 95 87 89 96 102 106 105 102 105 107 105 97 91 92 89 88 78 78 78 78 78 78 78 77 78 78 78 77 77 78 78 78 78 78 77 77 77
92 75 71 75 77 80 90 85 88 90 86 91 95 94 96 99 103 104 102 99 103 106 104 101 97 94 93 93 87 78 78 78 78 79 78 77 88 86 85 82 79 78 78 78 78 78 77 77 77
82 74 75 84 86 85 89 89 87 82 81 83 88 96 98 98 99 99 99 98 97 101 103 103 98 95 95 98 92 88 89 88 88 88 86 87 89 91 91 87 79 78 78 78 78 77 77 78 88
82 74 82 85 88 90 88 88 91 85 79 82 82 90 94 95 96 96 99 98 97 98 101 102 97 95 96 98 97 92 93 91 90 89 89 88 92 92 93 93 88 85 80 86 83 83 84 86 89
77 82 84 85 88 88 85 89 86 86 86 90 86 90 91 91 93 95 96 98 96 96 98 99 98 94 93 99 98 96 95 94 93 91 89 89 89 91 92 93 94 89 91 87 89 90 88 87 88
78 81 84 86 86 86 87 84 84 86 91 92 91 87 88 89 90 94 97 98 96 92 93 98 94 91 91 90 98 97 95 96 94 94 91 90 91 90 92 91 93 95 94 94 91 92 91 90 89
81 81 81 83 84 83 81 82 84 86 91 90 88 87 89 89 89 90 91 94 92 91 89 90 92 90 85 87 87 92 92 96 95 95 94 89 91 89 91 89 92 93 95 96 95 93 91 90 89
79 73 76 78 81 79 82 75 77 86 89 87 87 87 89 91 90 88 89 89 89 91 88 86 89 87 85 86 87 88 91 92 94 94 92 90 88 89 87 90 91 93 92 92 91 90 89 87 88
71 72 66 77 79 80 78 66 80 87 85 84 85 87 88 89 91 90 90 88 87 87 84 84 83 90 84 83 84 85 91 92 91 94 93 89 89 87 86 89 91 92 91 91 89 89 89 86 86
70 62 66 71 81 79 76 69 80 86 82 81 82 84 85 87 89 89 90 89 86 85 84 83 83 85 87 82 84 86 86 88 92 94 95 92 89 88 86 89 91 88 89 85 85 85 86 81 85
64 66 68 66 75 74 71 72 78 83 80 79 80 81 82 85 87 88 89 87 85 83 83 83 83 81 81 85 83 87 84 88 89 88 92 90 89 85 86 85 85 85 84 82 82 79 84 85 87
68 65 64 70 75 70 69 70 75 80 80 78 79 80 80 81 85 89 88 85 83 82 81 81 82 80 78 79 78 81 81 82 81 84 85 87 86 87 84 86 86 81 83 83 76 75 80 85 87
66 63 63 69 74 70 67 67 74 78 78 79 79 80 80 81 82 83 85 84 81 80 77 77 79 81 80 76 79 80 84 87 88 85 83 85 87 87 87 84 85 82 86 79 80 79 85 87 87
64 62 63 63 70 71 66 62 67 74 78 79 81 82 83 81 79 79 81 81 81 80 78 78 78 78 80 81 78 78 80 80 84 84 84 82 85 87 85 85 83 84 85 83 79 82 82 86 87
59 69 67 63 60 54 69 53 66 71 72 74 77 79 79 79 80 78 77 79 80 80 82 80 76 76 75 81 81 80 78 77 82 82 86 82 83 85 83 81 83 83 87 82 86 86 85 82 85
62 69 65 63 60 59 60 56 62 71 68 71 74 76 78 79 79 79 78 78 80 80 80 81 79 78 76 76 75 79 79 84 85 87 84 82 78 82 82 74 75 80 85 85 85 83 80 86 84
68 65 63 62 59 49 57 57 58 66 68 71 74 76 77 78 80 80 81 81 78 82 79 78 77 78 78 78 77 76 75 77 80 83 85 86 89 89 85 84 79 78 84 84 86 85 83 82 84
64 55 44 44 47 47 62 58 61 68 71 74 73 75 77 79 79 80 80 81 81 79 81 80 79 76 77 77 78 78 76 75 75 77 82 83 89 92 87 84 83 86 84 85 85 84 84 82 81
59 56 45 33 39 47 57 51 62 72 74 75 75 76 76 76 79 78 79 80 80 80 80 80 79 77 78 77 78 78 78 79 81 81 82 85 88 90 88 86 85 86 87 85 85 86 84 82 81
58 52 60 48 51 46 53 59 67 69 69 71 72 73 73 74 75 77 80 80 80 79 79 78 78 79 80 79 78 78 78 78 77 78 79 83 83 87 84 89 86 85 86 86 84 85 82 82 81
61 63 47 51 38 36 47 52 52 62 65 68 69 70 72 74 75 77 79 79 80 80 79 79 80 78 79 80 80 80 80 80 80 79 78 79 81 83 86 87 84 84 86 86 83 83 82 80 82
56 54 54 53 41 37 38 47 63 62 67 67 69 71 72 73 75 77 79 80 81 81 81 80 80 79 79 79 80 79 80 80 80 79 80 80 81 81 83 85 86 84 84 84 82 81 83 81 81
59 43 46 36 40 47 47 48 66 65 69 69 69 71 74 75 76 77 78 78 79 79 80 79 79 80 80 80 79 78 79 79 78 78 79 81 80 83 83 85 85 87 86 84 81 81 85 83 81
MSLP
1009.19 1007.74 1006.92 1005.73 1004.48 1001.82 999.30 997.79 997.11 997.77 998.47 998.64 998.62 998.75 998.48 998.03 998.17 999.05 1000.69 1001.20 1001.68 1003.04 1005.17 1006.32 1006.71 1007.31 1007.89 1008.45 1008.79 1009.27 1009.80 1010.17 1010.64 1011.06 1011.41 1011.85 1012.18 1012.35 1012.54 1012.93 1013.23 1013.39 1013.53 1013.68 1013.88 1013.96 1014.02 1014.06 1014.00
1009.02 1007.61 1006.56 1004.74 1003.27 1000.28 998.60 997.67 998.05 998.38 998.98 999.91 999.83 999.68 999.54 999.16 999.61 1000.64 1000.74 1002.08 1002.09 1003.38 1005.15 1005.99 1006.77 1007.49 1007.97 1008.64 1008.96 1009.25 1009.75 1010.25 1010.75 1011.15 1011.53 1011.90 1012.18 1012.53 1012.81 1013.10 1013.31 1013.52 1013.81 1014.07 1014.12 1014.21 1014.32 1014.40 1014.43
1008.93 1007.74 1006.34 1004.06 1002.56 1000.46 998.54 998.35 998.70 998.96 1000.15 1000.35 999.89 1000.00 999.81 1000.19 1001.14 1002.16 1002.14 1002.53 1002.78 1003.55 1004.92 1005.75 1006.85 1007.45 1007.88 1008.67 1009.26 1009.48 1009.76 1010.21 1010.70 1011.23 1011.63 1012.00 1012.29 1012.57 1012.92 1013.28 1013.59 1013.72 1014.00 1014.21 1014.39 1014.44 1014.58 1014.74 1014.74
1007.45 1006.44 1006.18 1004.44 1001.97 1000.66 1000.01 999.90 1000.20 999.93 1000.59 1000.86 1000.36 1000.44 1000.76 1001.65 1002.32 1002.81 1003.06 1002.82 1002.79 1003.28 1004.46 1005.92 1007.00 1007.37 1007.96 1008.64 1009.13 1009.67 1010.04 1010.47 1010.86 1011.31 1011.78 1012.06 1012.38 1012.73 1013.07 1013.31 1013.71 1013.83 1014.02 1014.18 1014.38 1014.64 1014.66 1014.82 1014.93
1007.23 1005.90 1004.64 1003.54 1002.33 1001.24 1001.16 1001.33 1001.22 1000.82 1000.60 1000.79 1000.65 1000.45 1000.76 1001.82 1002.60 1002.82 1002.83 1002.54 1002.42 1002.79 1003.93 1005.90 1007.05 1007.30 1007.99 1008.51 1009.27 1009.73 1010.11 1010.52 1010.98 1011.38 1011.86 1012.20 1012.67 1013.05 1013.28 1013.55 1013.86 1014.03 1014.20 1014.24 1014.43 1014.66 1014.76 1014.74 1014.94
1006.15 1005.18 1003.97 1002.61 1002.06 1001.68 1001.53 1002.05 1001.90 1001.27 1000.91 1000.81 1001.00 1000.80 1000.84 1001.71 1002.32 1002.55 1002.76 1002.09 1001.88 1002.48 1003.66 1005.44 1006.99 1007.36 1007.92 1008.48 1009.13 1009.76 1010.14 1010.62 1011.22 1011.59 1011.97 1012.29 1012.75 1013.22 1013.53 1013.81 1013.97 1014.12 1014.25 1014.45 1014.64 1014.71 1014.90 1014.88 1014.94
1005.91 1004.59 1003.33 1002.67 1001.45 1000.81 1001.32 1002.46 1002.32 1001.58 1001.34 1000.83 1000.72 1001.04 1000.71 1001.47 1002.60 1002.28 1002.41 1002.48 1002.14 1002.42 1003.72 1005.46 1006.86 1007.76 1008.17 1008.63 1009.23 1009.84 1010.27 1010.72 1011.34 1011.79 1012.16 1012.48 1012.80 1013.13 1013.53 1013.86 1014.07 1014.21 1014.41 1014.58 1014.76 1014.87 1014.88 1014.90 1014.83
1005.61 1004.82 1003.23 1002.17 1001.46 1000.57 1000.83 1002.09 1003.01 1002.69 1002.36 1001.53 1002.14 1001.51 1001.25 1002.31 1002.56 1001.84 1001.76 1002.41 1002.41 1002.37 1003.47 1005.13 1006.61 1007.30 1008.00 1008.58 1009.37 1009.80 1010.37 1010.95 1011.44 1011.81 1012.20 1012.57 1012.82 1013.13 1013.38 1013.72 1014.07 1014.07 1014.25 1014.42 1014.29 1014.61 1014.80 1014.97 1014.96
1005.29 1004.35 1002.36 1001.74 1001.26 1000.69 1000.80 1001.18 1002.53 1003.44 1003.10 1002.61 1002.05 1002.09 1002.14 1002.85 1002.63 1001.91 1001.93 1002.26 1002.29 1002.22 1003.21 1004.40 1006.01 1006.74 1007.30 1007.78 1008.85 1009.81 1010.45 1010.95 1011.52 1011.92 1012.26 1012.57 1012.46 1012.71 1013.04 1013.30 1013.57 1013.94 1014.13 1014.37 1014.47 1014.63 1014.67 1014.72 1014.83
1004.46 1003.28 1002.11 1001.81 1000.97 1000.47 1000.48 1000.64 1001.18 1003.16 1003.50 1003.04 1002.67 1002.33 1002.55 1002.79 1002.75 1002.34 1001.97 1002.09 1002.76 1002.51 1003.08 1003.95 1005.24 1006.20 1006.87 1007.06 1007.85 1009.11 1009.67 1010.39 1010.85 1011.21 1011.63 1011.99 1011.83 1011.84 1012.16 1012.47 1013.41 1013.82 1014.03 1014.15 1014.38 1014.51 1014.67 1014.82 1013.99
1003.72 1002.55 1002.20 1001.35 1001.09 1000.75 1000.15 1000.31 1000.63 1001.30 1002.32 1003.23 1003.09 1002.59 1002.66 1003.02 1002.79 1002.75 1002.27 1002.46 1002.83 1003.33 1003.42 1003.92 1005.16 1005.90 1006.49 1006.69 1007.18 1008.16 1008.72 1009.46 1010.04 1010.57 1010.90 1011.33 1011.16 1011.31 1011.67 1011.76 1012.68 1013.25 1013.67 1013.53 1013.85 1014.03 1014.29 1013.85 1013.48
1002.98 1002.56 1002.21 1001.89 1001.36 1000.82 1000.38 1000.58 1000.40 1000.83 1001.43 1002.51 1003.48 1002.97 1003.13 1003.37 1003.07 1002.94 1002.84 1002.65 1003.43 1003.66 1003.55 1004.16 1004.83 1005.77 1006.44 1006.39 1006.83 1007.26 1007.92 1008.43 1009.05 1009.66 1010.29 1010.69 1011.09 1010.74 1010.92 1011.20 1011.21 1011.97 1012.07 1012.68 1012.64 1012.54 1012.90 1013.25 1013.23
1002.75 1002.51 1002.21 1002.07 1001.93 1001.48 1001.26 1000.82 1001.03 1000.69 1000.96 1002.01 1002.63 1003.47 1003.13 1003.34 1003.60 1003.31 1003.11 1002.84 1003.69 1004.05 1003.99 1004.11 1005.22 1005.96 1006.50 1006.78 1006.47 1006.81 1007.25 1007.74 1008.15 1008.68 1009.49 1010.04 1010.28 1010.39 1010.63 1010.97 1010.93 1010.67 1011.12 1011.19 1011.83 1011.78 1011.91 1012.06 1012.30
1003.11 1002.71 1002.52 1002.36 1001.61 1002.07 1001.69 1001.34 1001.45 1000.89 1001.20 1001.44 1002.16 1002.78 1002.64 1002.87 1003.45 1003.89 1003.71 1003.24 1003.98 1004.56 1004.78 1004.78 1005.36 1006.34 1006.95 1007.18 1007.24 1007.08 1007.16 1007.11 1007.66 1008.01 1008.54 1009.53 1009.82 1009.97 1010.33 1010.91 1010.78 1010.66 1010.50 1010.48 1010.74 1011.12 1011.40 1011.45 1011.64
1003.81 1003.30 1002.98 1002.34 1001.69 1001.79 1002.13 1001.45 1000.81 1001.24 1001.43 1001.07 1001.34 1002.12 1002.06 1001.89 1002.89 1003.64 1003.95 1004.27 1004.49 1004.80 1005.38 1005.57 1005.26 1005.80 1006.63 1006.70 1007.65 1007.62 1007.40 1007.43 1007.46 1007.74 1008.13 1008.76 1009.60 1009.72 1010.18 1010.25 1010.31 1010.32 1010.34 1010.51 1010.84 1011.09 1011.28 1011.30 1011.10
1004.29 1003.60 1002.30 1001.59 1001.69 1001.75 1002.29 1000.38 1000.64 1000.89 1000.82 1000.73 1001.07 1001.44 1001.40 1001.73 1002.06 1003.22 1003.78 1004.51 1004.92 1005.19 1005.68 1005.93 1005.76 1004.96 1006.73 1007.48 1007.77 1007.73 1007.60 1007.44 1007.33 1007.40 1007.87 1008.39 1008.94 1009.55 1009.83 1009.83 1009.57 1009.73 1009.90 1009.94 1010.39 1010.08 1010.33 1010.37 1010.80
1003.29 1002.16 1001.29 1000.76 1000.70 1000.67 1001.14 1000.44 1000.49 1000.22 1000.77 1000.66 1001.28 1001.36 1001.71 1001.86 1001.89 1002.91 1003.53 1004.23 1004.78 1005.30 1005.86 1005.81 1005.11 1004.19 1006.24 1007.14 1007.24 1007.49 1007.42 1007.50 1006.92 1007.18 1007.01 1007.65 1008.33 1008.84 1009.43 1009.16 1009.21 1009.62 1009.95 1010.08 1010.13 1010.20 1009.79 1010.48 1009.47
1001.47 1000.90 1000.72 1000.60 1000.10 1001.24 1001.36 1000.29 1000.34 1000.07 1000.86 1001.25 1001.53 1001.90 1002.17 1001.59 1001.68 1002.60 1003.73 1004.17 1004.64 1005.31 1005.70 1006.09 1005.95 1006.49 1005.70 1005.91 1006.21 1007.15 1007.89 1007.02 1006.76 1006.65 1006.93 1007.29 1007.96 1008.66 1008.96 1008.96 1009.00 1008.96 1009.93 1010.15 1009.47 1009.75 1009.90 1009.81 1009.10
1002.57 1002.02 1001.28 1000.65 1000.68 1000.98 1001.08 1000.58 1000.04 1000.00 1000.10 1000.73 1001.17 1001.49 1001.83 1001.95 1002.20 1002.39 1003.18 1004.38 1005.18 1005.46 1005.39 1005.47 1005.96 1006.02 1005.64 1005.86 1006.42 1007.11 1006.78 1006.89 1005.62 1006.62 1005.94 1006.61 1007.37 1008.20 1008.19 1008.77 1008.55 1009.18 1009.01 1009.18 1009.07 1009.61 1009.50 1009.02 1008.72
1003.21 1002.57 1001.93 1001.57 1001.23 1001.53 1001.54 1000.84 1000.25 999.83 999.65 1000.15 1000.47 1000.78 1001.31 1001.68 1002.26 1002.78 1003.18 1004.28 1004.80 1005.23 1005.09 1004.85 1006.11 1005.77 1005.73 1006.15 1005.84 1006.14 1006.17 1005.73 1005.93 1006.36 1005.35 1006.22 1006.65 1007.31 1008.00 1008.33 1008.16 1008.34 1008.20 1008.91 1008.82 1008.95 1008.49 1008.15 1008.22
1003.22 1002.59 1001.97 1001.58 1001.26 1001.57 1001.89 1000.85 1000.33 999.77 999.59 999.85 999.96 1000.10 1000.37 1001.11 1002.08 1003.07 1003.53 1004.28 1004.74 1004.87 1005.19 1005.22 1005.57 1005.37 1006.11 1005.78 1006.36 1006.50 1005.56 1006.67 1005.54 1005.72 1005.25 1003.89 1005.25 1006.92 1007.48 1008.01 1008.27 1008.17 1008.15 1007.78 1008.21 1007.63 1007.75 1007.14 1007.23
1002.61 1002.49 1002.41 1002.44 1002.38 1001.47 1001.00 999.50 998.52 998.22 998.55 999.37 999.72 1000.03 1000.67 1001.51 1002.29 1003.27 1003.88 1004.29 1004.65 1004.70 1004.71 1004.72 1004.75 1004.99 1006.12 1005.12 1005.67 1005.42 1005.73 1005.18 1005.04 1005.00 1004.44 1004.54 1004.48 1005.83 1006.74 1007.33 1007.32 1008.22 1008.26 1007.74 1006.66 1006.64 1006.50 1006.58 1006.15
1003.00 1002.92 1003.06 1003.03 1002.81 1002.29 1001.26 1000.24 998.66 998.19 997.85 998.77 999.63 1000.18 1000.63 1001.38 1002.03 1002.56 1003.51 1004.00 1004.60 1004.66 1004.77 1004.74 1005.50 1005.67 1005.90 1005.89 1006.41 1005.34 1005.21 1004.86 1004.22 1004.38 1004.06 1004.15 1004.72 1005.28 1005.56 1004.99 1003.84 1007.74 1007.90 1007.29 1005.93 1005.78 1005.87 1005.91 1006.33
1003.94 1003.69 1003.80 1003.66 1003.20 1001.75 1000.63 999.83 998.16 997.02 997.39 998.31 999.72 1000.20 1000.87 1001.35 1001.82 1002.48 1002.95 1003.57 1004.09 1004.29 1004.80 1005.13 1005.50 1005.81 1005.99 1006.01 1005.44 1004.89 1005.02 1005.14 1004.31 1003.34 1002.94 1003.01 1003.03 1003.45 1004.21 1003.91 1004.40 1006.29 1006.37 1006.55 1005.32 1004.88 1005.31 1005.35 1005.43
1004.14 1004.59 1004.09 1002.92 1001.87 1000.05 999.08 998.31 997.38 997.57 997.77 998.08 999.23 1000.12 1000.72 1001.25 1001.45 1002.01 1002.24 1002.44 1002.89 1003.65 1003.92 1004.30 1004.73 1005.18 1005.22 1005.42 1005.16 1005.07 1005.06 1005.08 1004.66 1004.39 1003.97 1003.40 1002.72 1002.08 1002.00 1003.04 1004.00 1004.53 1005.16 1005.16 1004.81 1004.52 1004.44 1004.47 1005.34
1003.38 1004.15 1004.13 1003.36 1001.96 1000.50 999.98 998.74 997.40 998.03 998.50 999.27 999.79 1000.37 1000.88 1001.40 1001.51 1001.83 1002.20 1002.49 1002.88 1003.09 1003.29 1003.77 1004.04 1004.49 1004.66 1004.62 1004.45 1004.27 1004.71 1004.31 1003.85 1003.68 1003.59 1003.11 1002.42 1002.05 1001.84 1002.30 1003.05 1003.62 1003.92 1003.97 1003.76 1003.46 1004.05 1004.13 1004.80
1003.17 1003.57 1004.40 1004.28 1003.70 1001.95 1000.33 999.13 998.20 998.64 999.01 999.64 1000.27 1000.58 1001.05 1001.47 1001.89 1002.12 1002.07 1002.25 1002.47 1002.71 1002.94 1003.26 1003.71 1003.68 1003.59 1003.72 1003.80 1003.72 1003.77 1003.60 1003.80 1003.64 1003.20 1002.78 1002.50 1002.29 1002.10 1001.94 1002.35 1002.65 1002.79 1002.76 1002.78 1002.77 1003.61 1003.59 1004.33
1003.76 1004.05 1004.83 1004.56 1003.86 1002.51 1000.79 999.09 997.85 997.32 998.55 999.52 1000.03 1000.56 1000.92 1001.23 1001.80 1001.80 1001.79 1001.93 1002.19 1002.43 1002.85 1003.09 1002.96 1002.98 1003.03 1002.98 1002.97 1002.83 1002.72 1002.84 1002.98 1002.95 1002.82 1002.71 1002.42 1002.15 1001.59 1001.56 1001.94 1001.90 1001.84 1001.86 1002.13 1002.29 1002.61 1003.28 1003.80
1003.84 1004.22 1004.74 1004.82 1005.38 1003.38 1001.47 999.76 999.57 998.46 998.55 999.06 999.59 1000.14 1000.81 1001.18 1001.28 1001.34 1001.27 1001.37 1001.61 1001.83 1001.96 1002.13 1002.36 1002.48 1002.60 1002.76 1002.64 1002.44 1002.41 1002.31 1002.36 1002.28 1002.08 1001.89 1001.70 1001.45 1001.06 1000.79 1000.73 1001.00 1000.97 1001.15 1001.64 1001.78 1001.85 1002.57 1003.13
1004.85 1006.43 1005.96 1005.22 1004.51 1003.46 1001.90 1000.12 1000.04 999.90 999.79 999.61 1000.05 1000.45 1000.48 1000.41 1000.86 1001.27 1001.28 1001.31 1001.38 1001.58 1001.73 1001.78 1001.79 1001.80 1002.03 1002.11 1001.95 1001.93 1001.94 1001.91 1001.83 1001.54 1001.26 1001.07 1000.68 1000.35 1000.08 1000.06 1000.15 999.91 999.98 1000.45 1001.01 1001.29 1001.04 1001.75 1002.42
Wind_Speed
18 11 7 8 9 9 16 19 3 2 4 5 8 4 9 13 13 7 6 8 9 17 19 19 18 17 16 14 16 16 15 15 14 14 14 12 12 12 13 12 11 11 11 10 9 9 8 9 9
11 12 8 8 10 14 12 16 7 8 11 3 5 8 11 12 12 10 10 9 9 17 17 19 18 16 16 13 14 15 15 15 14 14 14 13 13 12 13 12 11 11 10 9 8 7 7 7 7
13 7 10 8 13 15 13 8 2 4 5 7 4 2 6 6 14 10 16 6 3 15 18 18 19 17 18 15 11 13 15 15 15 14 14 13 13 13 12 11 10 11 10 9 7 7 6 6 6
7 7 6 11 18 15 12 6 8 6 5 5 4 6 6 10 10 12 13 12 7 15 19 22 19 19 18 17 14 12 13 14 14 15 14 14 13 12 12 12 10 10 10 9 9 7 7 7 6
9 8 12 14 19 20 4 9 12 6 7 5 8 12 3 7 11 13 12 8 12 16 18 21 20 20 18 18 15 13 12 13 13 14 14 13 12 11 11 10 9 9 8 9 9 9 8 8 7
11 10 15 17 20 19 2 12 14 15 12 9 6 14 5 6 13 12 11 7 13 16 17 19 20 19 18 18 16 13 12 11 10 11 12 12 11 10 9 9 9 8 8 8 8 9 9 8 8
17 14 19 23 21 17 9 12 10 15 15 10 3 4 4 11 13 9 7 4 8 15 16 16 19 16 15 14 14 12 11 10 8 8 8 9 10 10 9 8 8 8 7 7 7 8 8 9 9
15 16 26 23 19 22 11 12 7 11 15 6 2 8 5 12 13 10 7 3 9 15 17 16 17 18 17 15 11 11 10 9 9 9 9 9 9 8 9 8 9 9 9 9 10 10 9 9 9
19 19 21 27 25 18 15 14 14 9 12 10 10 8 5 6 12 11 8 5 8 13 16 16 18 18 17 17 14 12 11 10 9 9 9 9 10 11 12 11 11 12 10 9 9 9 9 10 10
21 17 27 25 22 22 20 22 15 11 13 17 19 14 8 5 10 11 7 6 7 11 14 15 16 17 17 14 15 15 14 12 11 12 13 10 11 10 11 11 11 11 10 10 10 10 10 10 10
22 24 23 21 25 26 23 22 14 17 14 13 20 20 15 13 11 8 13 6 2 9 10 13 13 13 16 14 12 9 9 9 10 14 11 11 9 9 8 6 8 8 12 9 11 10 9 12 10
25 26 22 22 26 24 23 20 22 20 19 12 6 16 12 13 13 13 11 6 1 11 16 12 14 11 12 11 11 11 11 11 10 13 12 8 8 7 7 7 9 8 8 9 9 8 9 10 12
21 23 22 22 21 24 21 22 25 26 19 17 11 15 19 12 13 12 9 3 1 4 9 16 7 8 8 9 9 10 11 10 12 11 13 11 10 8 8 7 8 6 8 8 8 8 6 8 10
16 19 20 23 21 19 24 23 23 25 21 20 10 19 22 21 6 9 9 5 0 1 3 9 14 11 8 10 9 6 5 10 9 10 10 13 10 7 9 8 9 8 8 7 6 6 7 8 8
16 20 18 20 21 21 18 25 29 24 23 24 19 19 20 20 15 7 3 6 2 2 2 7 8 12 12 12 12 7 8 9 10 9 11 12 12 10 9 9 9 8 8 6 5 5 8 8 8
14 18 20 20 22 22 20 26 25 26 25 30 15 19 17 19 20 13 7 3 1 3 4 3 8 14 12 13 10 8 11 11 8 9 9 13 13 13 10 9 9 9 8 8 8 9 10 8 9
18 17 20 21 22 15 22 27 22 16 11 11 17 10 17 14 15 11 8 7 2 3 4 5 6 3 13 13 10 11 10 10 10 10 10 11 13 14 12 10 9 6 7 6 6 8 8 7 6
17 18 17 17 10 14 20 24 17 16 12 14 14 15 16 13 13 13 10 3 4 3 3 4 3 1 6 6 4 7 11 10 10 8 10 10 10 12 12 10 7 10 9 9 9 8 8 10 6
19 15 19 16 8 7 12 17 19 18 19 17 16 17 16 14 12 9 7 3 3 2 4 3 4 4 5 4 5 8 8 11 4 10 9 8 10 13 13 11 12 9 10 13 9 7 11 9 7
16 19 19 17 13 10 16 19 19 19 16 19 18 18 18 16 14 12 8 7 5 3 5 6 4 3 2 1 3 5 4 8 11 11 12 15 13 12 12 13 11 13 11 12 10 10 10 8 7
18 18 17 17 12 12 14 22 22 21 24 22 22 20 17 15 11 12 10 8 7 5 2 3 1 2 8 2 4 5 3 7 6 10 10 8 9 13 12 13 12 10 12 11 13 12 12 10 9
17 17 16 16 12 14 15 13 14 5 9 12 15 11 9 13 13 11 10 9 6 3 2 2 4 3 7 3 7 5 6 6 9 6 4 3 15 13 15 14 10 12 11 15 12 11 12 11 10
14 15 12 11 16 17 20 14 14 20 19 13 12 13 11 7 8 12 12 7 5 3 1 2 2 4 5 3 7 7 9 9 7 8 9 11 7 11 16 13 9 11 14 16 15 11 12 10 9
13 18 14 16 15 18 21 20 17 14 14 14 13 9 9 7 10 7 5 8 7 6 4 3 3 4 5 8 7 6 9 10 10 10 7 8 10 12 14 10 12 20 18 19 12 12 13 13 10
14 12 13 16 16 17 18 11 12 5 2 11 18 12 7 9 7 9 7 7 5 5 6 5 4 4 4 7 8 9 9 9 10 10 10 10 10 10 11 15 15 16 17 16 13 12 12 11 10
13 15 12 12 13 13 4 8 9 9 13 6 3 6 5 7 9 3 6 6 7 8 4 6 4 4 5 6 8 6 9 9 9 11 11 10 10 10 12 13 16 17 17 16 14 10 11 10 11
19 19 16 19 21 18 14 21 9 12 7 6 10 10 10 5 5 8 9 6 7 7 8 6 7 8 7 7 8 7 8 9 10 12 10 10 11 11 14 9 12 15 16 14 13 11 12 11 11
20 4 10 11 19 20 17 20 14 19 17 13 10 9 11 4 9 12 12 10 9 8 8 11 12 9 11 10 8 9 10 10 10 10 11 12 12 13 12 11 13 13 14 14 14 12 11 12 10
15 18 15 13 8 7 13 8 10 9 12 15 6 4 6 11 13 12 13 11 11 11 11 11 11 11 11 10 11 11 11 12 12 10 11 12 13 13 14 13 13 15 15 15 14 12 13 14 12
14 14 18 5 13 16 16 17 9 4 8 6 6 7 15 11 9 12 13 12 12 11 12 13 14 13 12 12 12 12 12 13 12 12 12 13 14 13 13 13 15 15 15 14 15 16 14 15 14
Wind_Direction
287 265 283 257 241 234 247 238 263 40 236 246 328 240 262 325 352 29 116 38 113 134 157 165 148 148 150 161 157 157 156 154 155 154 151 150 148 148 143 143 146 147 148 147 145 138 133 130 131
301 300 247 275 253 248 229 246 143 212 60 7 249 238 253 262 38 21 359 22 116 134 156 171 152 153 149 161 162 157 158 156 159 158 154 155 156 151 147 150 154 152 152 151 146 142 139 135 133
258 274 280 239 237 253 268 25 46 155 79 271 254 303 1 7 39 354 330 26 176 147 161 165 160 157 151 160 167 164 159 161 161 161 161 161 158 157 154 153 157 158 156 152 151 152 147 148 150
265 213 235 259 258 244 281 10 310 39 186 240 311 261 155 83 2 345 319 290 238 172 168 147 167 157 156 159 164 170 165 163 165 164 165 165 163 160 159 156 164 163 165 161 161 163 159 165 175
243 263 259 243 255 262 210 290 272 247 264 244 223 257 180 78 10 348 326 273 222 183 171 155 168 160 161 158 168 168 170 167 169 167 170 167 165 164 160 159 164 171 172 168 169 173 179 177 188
246 239 252 246 232 254 206 262 261 244 261 252 237 243 250 82 11 348 352 305 205 185 173 157 170 168 165 163 165 170 167 167 171 168 169 167 164 162 162 164 171 176 178 181 183 182 185 186 194
250 251 242 255 263 234 191 256 238 266 250 236 250 263 227 48 348 342 18 325 236 181 178 152 178 179 165 161 162 165 162 155 157 154 157 160 161 159 165 173 182 185 187 192 195 197 196 196 200
243 251 255 255 253 256 216 207 245 278 255 268 182 241 234 31 334 323 41 346 222 187 178 156 179 184 185 178 159 159 157 152 149 146 148 154 153 166 174 175 196 192 193 201 194 204 210 214 213
230 244 246 244 248 257 249 197 201 243 259 265 252 288 12 349 328 335 354 111 236 188 180 167 178 182 188 186 178 163 161 157 153 158 154 158 202 190 190 203 182 194 201 208 211 215 214 220 231
227 236 243 254 256 252 254 252 184 187 229 246 270 234 208 307 326 332 326 13 204 210 190 178 182 181 190 191 179 196 193 202 200 203 193 212 211 208 213 196 180 196 204 210 218 221 223 230 248
217 241 254 252 252 265 265 252 241 217 201 238 233 252 333 315 305 309 324 59 318 254 207 197 178 175 197 200 181 185 195 195 199 210 207 200 208 218 196 210 186 213 202 224 206 214 232 238 243
241 242 253 261 269 268 262 273 264 241 223 211 247 269 246 303 307 313 305 354 114 274 192 219 177 185 199 202 189 184 194 189 197 199 195 217 217 208 227 213 206 193 212 211 242 213 219 230 253
236 252 251 259 259 271 272 251 256 259 252 229 243 261 247 254 313 308 294 328 93 287 318 190 198 197 210 249 210 205 191 196 198 193 192 207 212 219 203 235 237 221 209 208 221 237 248 232 243
263 249 263 259 251 253 258 258 260 258 267 255 230 251 253 235 254 309 305 303 90 221 289 314 181 191 201 220 267 214 213 199 203 199 198 197 217 209 214 216 229 241 235 237 230 226 240 228 241
257 268 261 258 258 244 252 252 248 255 260 252 228 238 246 245 219 245 310 327 349 285 280 269 213 178 197 211 227 236 212 234 202 214 196 187 206 225 205 221 221 227 232 238 250 253 246 244 245
258 249 255 244 234 240 241 254 246 244 242 240 252 251 241 250 222 226 198 195 18 3 352 244 284 169 184 203 219 225 224 208 239 208 212 202 198 219 201 229 223 228 222 200 213 210 233 230 242
232 252 246 244 246 232 225 246 251 245 241 255 249 254 264 239 219 208 205 183 105 78 34 347 329 68 194 203 207 220 237 233 216 225 215 206 208 208 226 216 223 227 223 231 216 236 220 250 216
252 234 227 254 201 205 252 256 253 252 216 231 236 236 246 239 221 190 197 119 114 99 28 8 24 334 172 172 187 231 234 230 215 226 219 214 221 215 213 231 223 183 217 232 207 225 233 235 230
281 292 286 295 244 257 265 272 261 233 204 224 237 242 241 228 259 208 187 238 169 160 127 58 337 5 26 181 185 228 223 223 232 226 220 217 209 219 215 229 209 205 213 222 199 205 225 226 217
272 264 259 260 256 250 260 263 261 258 249 244 244 233 230 237 224 245 223 231 218 242 131 117 297 334 132 293 206 237 249 237 221 223 198 207 211 218 228 229 226 207 215 216 218 212 234 222 223
255 258 262 263 262 237 265 265 258 251 250 247 244 242 238 218 200 234 229 216 240 222 212 152 183 30 290 228 253 219 191 271 242 230 229 161 190 226 223 237 231 245 227 219 223 207 218 232 210
255 253 241 276 272 260 246 275 248 310 213 236 233 228 225 218 207 202 214 211 211 214 249 352 31 357 276 249 276 266 272 246 218 249 237 213 186 206 215 218 228 247 245 236 209 207 215 217 221
268 287 298 259 259 269 258 259 259 254 215 189 218 206 196 178 211 199 191 194 226 218 211 118 231 264 262 274 262 277 249 263 258 243 222 218 204 211 205 212 159 268 247 240 233 202 198 201 227
295 275 251 258 255 250 250 249 260 243 214 180 194 193 197 215 178 198 198 192 215 195 195 177 207 220 242 236 248 261 272 283 292 303 300 264 227 206 219 204 193 224 226 239 217 217 198 205 201
232 256 269 246 226 244 240 234 243 23 137 194 189 188 213 225 201 234 238 250 245 225 228 207 200 269 239 240 242 239 241 248 258 267 269 268 271 253 201 197 217 218 223 230 227 208 208 193 214
213 249 240 263 280 295 104 231 244 245 174 209 291 257 259 228 235 266 284 278 281 273 258 281 274 254 286 275 273 255 261 259 258 238 243 257 256 259 272 193 205 213 219 216 216 207 215 197 202
257 216 259 280 269 278 266 259 185 168 187 210 231 216 208 211 261 273 277 289 293 299 291 284 286 291 290 287 288 268 255 254 265 281 289 274 263 260 271 260 217 220 223 215 209 207 205 203 205
263 207 244 251 254 249 254 266 266 186 188 195 202 204 225 255 289 277 278 279 277 271 269 262 265 283 295 294 281 277 289 280 266 260 258 259 266 270 270 239 229 232 227 217 207 200 196 197 205
240 230 221 237 207 268 278 258 342 156 185 179 190 242 251 254 289 288 290 284 274 272 274 280 268 266 274 284 289 284 281 283 279 267 266 264 256 252 251 253 233 222 224 213 206 204 195 197 204
270 212 259 232 256 260 264 258 173 164 252 192 206 244 251 287 287 284 286 283 282 277 274 280 277 270 274 277 278 284 286 283 279 279 276 274 258 258 252 246 242 226 219 208 203 209 199 194 199